When you browse on this site, cookies collect data to enhance your experience and personalize the content and advertising you see.
Visit our Privacy Policy to learn more. By continuing to use the site, you agree to this use of cookies and data.
  • In Germany
  • List of Countries
  • For 7 days
  • Water Temperature
  • Satellite Maps
  • Weather Map
  • Weather Widgets
  • user-avatar
    Login

    Hourly Weather Kandahar

    Today, 19 July, Friday

    Time Temperature Precipitation Wind Pressure Humidity
    00:00 +30°C° 0 mm 1 mps 666 mmHg 10%
    01:00 +28°C° 0 mm 1 mps 666 mmHg 10%
    02:00 +28°C° 0 mm 1 mps 666 mmHg 14%
    03:00 +27°C° 0 mm 2 mps 666 mmHg 18%
    04:00 +27°C° 0 mm 3 mps 666 mmHg 17%
    05:00 +29°C° 0 mm 2 mps 667 mmHg 19%
    06:00 +31°C° 0 mm 2 mps 668 mmHg 21%
    07:00 +34°C° 0 mm 2 mps 669 mmHg 23%
    08:00 +36°C° 0 mm 2 mps 669 mmHg 20%
    09:00 +37°C° 0 mm 1 mps 669 mmHg 18%
    10:00 +40°C° 0 mm 2 mps 670 mmHg 18%
    11:00 +41°C° 0 mm 2 mps 670 mmHg 14%
    12:00 +44°C° 0 mm 3 mps 669 mmHg 11%
    13:00 +46°C° 0 mm 3 mps 669 mmHg 7%
    14:00 +47°C° 0 mm 4 mps 669 mmHg 6%
    15:00 +48°C° 0 mm 4 mps 668 mmHg 5%
    16:00 +48°C° 0 mm 5 mps 668 mmHg 4%
    17:00 +45°C° 0 mm 4 mps 667 mmHg 5%
    18:00 +42°C° 0 mm 4 mps 667 mmHg 5%
    19:00 +40°C° 0 mm 4 mps 667 mmHg 6%
    20:00 +37°C° 0 mm 3 mps 667 mmHg 6%
    21:00 +35°C° 0 mm 3 mps 667 mmHg 7%
    22:00 +32°C° 0 mm 2 mps 667 mmHg 8%
    23:00 +33°C° 0 mm 3 mps 667 mmHg 12%

    Tomorrow, 20 July, Saturday

    Time Temperature Precipitation Wind Pressure Humidity
    00:00 +32°C° 0 mm 4 mps 667 mmHg 17%
    01:00 +32°C° 0 mm 5 mps 668 mmHg 21%
    02:00 +29°C° 0 mm 4 mps 668 mmHg 30%
    03:00 +28°C° 0 mm 3 mps 668 mmHg 38%
    04:00 +26°C° 0 mm 2 mps 668 mmHg 47%
    05:00 +28°C° 0 mm 2 mps 669 mmHg 43%
    06:00 +30°C° 0 mm 2 mps 670 mmHg 39%
    07:00 +32°C° 0 mm 2 mps 670 mmHg 35%
    08:00 +35°C° 0 mm 2 mps 671 mmHg 31%
    09:00 +37°C° 0 mm 2 mps 671 mmHg 27%
    10:00 +38°C° 0 mm 2 mps 671 mmHg 23%
    11:00 +40°C° 0 mm 2 mps 671 mmHg 19%
    12:00 +42°C° 0 mm 1 mps 671 mmHg 15%
    13:00 +43°C° 0 mm 1 mps 670 mmHg 12%
    14:00 +45°C° 0 mm 2 mps 670 mmHg 10%
    15:00 +46°C° 0 mm 3 mps 670 mmHg 9%
    16:00 +47°C° 0 mm 4 mps 669 mmHg 8%
    17:00 +44°C° 0 mm 3 mps 669 mmHg 9%
    18:00 +40°C° 0 mm 3 mps 669 mmHg 10%
    19:00 +38°C° 0 mm 3 mps 668 mmHg 10%
    20:00 +37°C° 0 mm 3 mps 668 mmHg 11%
    21:00 +36°C° 0 mm 2 mps 668 mmHg 11%
    22:00 +34°C° 0 mm 2 mps 669 mmHg 12%
    23:00 +32°C° 0 mm 2 mps 668 mmHg 18%

    Day after tomorrow, 21 July, Sunday

    Time Temperature Precipitation Wind Pressure Humidity
    00:00 +31°C° 0 mm 3 mps 668 mmHg 25%
    01:00 +29°C° 0 mm 3 mps 668 mmHg 32%
    02:00 +29°C° 0 mm 3 mps 668 mmHg 34%
    03:00 +29°C° 0 mm 3 mps 668 mmHg 37%
    04:00 +28°C° 0 mm 3 mps 669 mmHg 40%
    05:00 +30°C° 0 mm 3 mps 669 mmHg 37%
    06:00 +31°C° 0 mm 2 mps 670 mmHg 35%
    07:00 +34°C° 0 mm 2 mps 671 mmHg 32%
    08:00 +36°C° 0 mm 2 mps 671 mmHg 29%
    09:00 +37°C° 0 mm 2 mps 671 mmHg 25%
    10:00 +39°C° 0 mm 2 mps 671 mmHg 22%
    11:00 +40°C° 0 mm 2 mps 671 mmHg 19%
    12:00 +42°C° 0 mm 1 mps 670 mmHg 16%
    13:00 +43°C° 0 mm 1 mps 670 mmHg 13%
    14:00 +44°C° 0 mm 1 mps 669 mmHg 12%
    15:00 +45°C° 0 mm 2 mps 669 mmHg 10%
    16:00 +46°C° 0 mm 2 mps 668 mmHg 9%
    17:00 +42°C° 0 mm 2 mps 668 mmHg 10%
    18:00 +40°C° 0 mm 2 mps 668 mmHg 12%
    19:00 +38°C° 0 mm 2 mps 667 mmHg 13%
    20:00 +37°C° 0 mm 2 mps 668 mmHg 13%
    21:00 +36°C° 0 mm 2 mps 668 mmHg 14%
    22:00 +35°C° 0 mm 3 mps 668 mmHg 14%
    23:00 +32°C° 0 mm 2 mps 668 mmHg 22%

    22 July, Monday

    Time Temperature Precipitation Wind Pressure Humidity
    00:00 +30°C° 0 mm 2 mps 668 mmHg 30%
    01:00 +29°C° 0 mm 2 mps 667 mmHg 38%
    02:00 +28°C° 0 mm 2 mps 667 mmHg 40%
    03:00 +28°C° 0 mm 2 mps 668 mmHg 42%
    04:00 +28°C° 0 mm 2 mps 668 mmHg 44%
    05:00 +29°C° 0 mm 2 mps 668 mmHg 40%
    06:00 +31°C° 0 mm 2 mps 669 mmHg 37%
    07:00 +34°C° 0 mm 2 mps 670 mmHg 33%
    08:00 +35°C° 0 mm 2 mps 670 mmHg 29%
    09:00 +37°C° 0 mm 2 mps 670 mmHg 25%
    10:00 +39°C° 0 mm 2 mps 670 mmHg 21%
    11:00 +41°C° 0 mm 2 mps 669 mmHg 18%
    12:00 +42°C° 0 mm 2 mps 669 mmHg 15%
    13:00 +45°C° 0 mm 2 mps 669 mmHg 12%
    14:00 +45°C° 0 mm 2 mps 668 mmHg 11%
    15:00 +46°C° 0 mm 2 mps 668 mmHg 10%
    16:00 +46°C° 0 mm 2 mps 667 mmHg 9%
    17:00 +43°C° 0 mm 2 mps 667 mmHg 11%
    18:00 +40°C° 0 mm 2 mps 666 mmHg 12%
    19:00 +38°C° 0 mm 2 mps 666 mmHg 14%
    20:00 +37°C° 0 mm 2 mps 666 mmHg 15%
    21:00 +36°C° 0 mm 2 mps 666 mmHg 16%
    22:00 +35°C° 0 mm 2 mps 666 mmHg 16%
    23:00 +34°C° 0 mm 2 mps 666 mmHg 16%

    23 July, Tuesday

    Time Temperature Precipitation Wind Pressure Humidity
    00:00 +32°C° 0 mm 2 mps 666 mmHg 16%
    01:00 +31°C° 0 mm 2 mps 666 mmHg 16%
    02:00 +30°C° 0 mm 2 mps 666 mmHg 19%
    03:00 +29°C° 0 mm 2 mps 666 mmHg 21%
    04:00 +28°C° 0 mm 2 mps 666 mmHg 24%
    05:00 +30°C° 0 mm 2 mps 667 mmHg 25%
    06:00 +31°C° 0 mm 2 mps 667 mmHg 25%
    07:00 +34°C° 0 mm 2 mps 668 mmHg 26%
    08:00 +36°C° 0 mm 2 mps 668 mmHg 23%
    09:00 +37°C° 0 mm 1 mps 669 mmHg 19%
    10:00 +40°C° 0 mm 1 mps 669 mmHg 16%
    11:00 +42°C° 0 mm 2 mps 669 mmHg 13%
    12:00 +45°C° 0 mm 2 mps 669 mmHg 10%
    13:00 +46°C° 0 mm 3 mps 668 mmHg 8%
    14:00 +48°C° 0 mm 4 mps 668 mmHg 7%
    15:00 +48°C° 0 mm 4 mps 668 mmHg 6%
    16:00 +48°C° 0 mm 5 mps 667 mmHg 6%
    17:00 +46°C° 0 mm 5 mps 667 mmHg 7%
    18:00 +43°C° 0 mm 5 mps 667 mmHg 8%
    19:00 +41°C° 0 mm 5 mps 666 mmHg 9%
    20:00 +38°C° 0 mm 4 mps 666 mmHg 10%
    21:00 +36°C° 0 mm 3 mps 666 mmHg 11%
    22:00 +35°C° 0 mm 3 mps 666 mmHg 11%
    23:00 +34°C° 0 mm 3 mps 666 mmHg 12%

    24 July, Wednesday

    Time Temperature Precipitation Wind Pressure Humidity
    00:00 +32°C° 0 mm 2 mps 666 mmHg 13%
    01:00 +30°C° 0 mm 2 mps 665 mmHg 14%
    02:00 +30°C° 0 mm 2 mps 665 mmHg 14%
    03:00 +29°C° 0 mm 1 mps 665 mmHg 15%
    04:00 +28°C° 0 mm 1 mps 665 mmHg 15%
    05:00 +30°C° 0 mm 1 mps 666 mmHg 14%
    06:00 +32°C° 0 mm 1 mps 667 mmHg 12%
    07:00 +35°C° 0 mm 2 mps 668 mmHg 11%
    08:00 +37°C° 0 mm 2 mps 668 mmHg 10%
    09:00 +39°C° 0 mm 2 mps 668 mmHg 9%
    10:00 +41°C° 0 mm 2 mps 669 mmHg 8%
    11:00 +43°C° 0 mm 3 mps 668 mmHg 7%
    12:00 +45°C° 0 mm 3 mps 668 mmHg 7%
    13:00 +47°C° 0 mm 4 mps 668 mmHg 6%
    14:00 +47°C° 0 mm 4 mps 667 mmHg 6%
    15:00 +48°C° 0 mm 5 mps 667 mmHg 6%
    16:00 +48°C° 0 mm 5 mps 666 mmHg 5%
    17:00 +46°C° 0 mm 5 mps 666 mmHg 6%
    18:00 +42°C° 0 mm 4 mps 665 mmHg 8%
    19:00 +40°C° 0 mm 4 mps 665 mmHg 9%
    20:00 +37°C° 0 mm 3 mps 665 mmHg 10%
    21:00 +35°C° 0 mm 2 mps 665 mmHg 11%
    22:00 +32°C° 0 mm 1 mps 665 mmHg 12%
    23:00 +31°C° 0 mm 1 mps 664 mmHg 13%
    Show more